{"data":{"norad_id":67200,"epoch":"2026-09-20T16:20:42.871200Z","epoch_age_seconds":62591,"freshness":"FRESH","line1":"1 67200U 25304J   26263.68105175  .00001758  00000+0  15508-3 0  9993","line2":"2 67200  70.0014  42.7738 0002722 269.9643  90.1204 14.98334823 43099","mean_motion":14.98334823,"eccentricity":0.0002722,"inclination_deg":70.0014,"raan_deg":42.7738,"arg_perigee_deg":269.9643,"mean_anomaly_deg":90.1204,"bstar":0.00015508,"rev_number":4309,"period_min":96.10668976623,"perigee_km":570.14913780964,"apogee_km":573.93281469991,"semimajor_km":6950.1779762548,"source":"CELESTRAK","updated_at":"2026-09-21T09:00:36.136746Z"}}